Total_Precipitation_Accumulation
0.33 0.72 1.32 2.11 2.97 3.39 2.84 1.96 1.42 1.18 1.07 1.05 1.03 1.07 1.19 1.36 2.06 3.50 3.74 3.32 2.80 2.50 2.55 2.87 3.07 2.91 2.95 2.93 2.86 2.86 2.87 3.12 3.20 3.22 3.27 3.19 2.99 2.96 2.90 2.76 2.96 3.10 3.03 3.15 3.10 2.93 2.73 2.54 2.46
0.59 1.18 1.74 2.52 3.39 3.21 2.56 1.72 1.28 1.12 0.95 0.83 0.81 1.00 1.16 1.21 1.48 2.38 3.24 3.12 2.27 2.06 2.20 2.33 2.75 2.62 2.47 2.42 2.47 2.66 2.67 2.68 2.79 3.01 3.26 3.35 3.24 3.11 3.05 2.93 3.09 3.15 3.01 3.10 2.97 2.66 2.37 2.26 2.28
0.92 1.57 2.18 2.85 2.69 2.37 2.06 1.42 1.04 0.79 0.88 0.92 0.86 0.92 1.31 1.64 1.66 2.20 2.75 2.48 1.96 1.79 1.95 2.31 2.44 2.33 2.22 2.19 2.25 2.52 2.41 2.40 2.54 2.68 3.01 3.27 3.35 3.43 3.35 3.10 3.08 2.94 2.86 2.91 2.78 2.42 2.26 2.17 2.16
1.24 1.78 2.17 2.42 1.78 1.44 1.27 1.01 0.73 0.63 0.71 0.78 0.89 1.16 1.55 1.79 1.80 2.07 2.12 1.85 1.54 1.57 1.75 2.11 2.26 2.12 2.01 2.03 2.18 2.42 2.30 2.35 2.47 2.48 2.84 3.07 3.11 3.18 3.18 3.11 2.93 2.75 2.66 2.64 2.76 2.36 2.34 2.21 2.19
1.34 1.96 2.39 1.89 1.34 1.19 1.02 0.80 0.61 0.54 0.67 0.82 0.88 1.35 2.05 2.22 1.87 1.81 1.69 1.58 1.44 1.52 1.80 2.01 2.17 2.09 2.01 2.07 2.18 2.31 2.30 2.28 2.34 2.50 2.80 2.90 2.88 3.05 3.08 2.96 2.63 2.41 2.48 2.50 2.54 2.40 2.31 2.29 2.35
1.38 1.87 1.85 1.41 1.13 0.98 0.85 0.74 0.62 0.55 0.72 0.96 0.92 1.30 2.46 2.61 2.00 1.72 1.50 1.43 1.34 1.34 1.66 1.85 2.06 2.10 2.03 2.01 2.06 2.17 2.06 2.05 2.22 2.44 2.62 2.56 2.53 2.66 2.72 2.70 2.55 2.27 2.36 2.30 2.23 2.37 2.32 2.53 2.60
1.51 1.50 1.18 1.00 0.90 0.87 0.76 0.66 0.60 0.56 0.76 1.07 0.95 1.36 2.54 2.94 2.20 1.64 1.43 1.33 1.28 1.28 1.50 1.82 2.09 2.11 2.05 2.00 1.94 2.08 2.13 2.04 2.11 2.24 2.38 2.46 2.46 2.39 2.32 2.42 2.45 2.26 2.19 2.09 2.10 2.30 2.49 2.60 2.54
1.03 1.12 0.88 0.70 0.68 0.69 0.58 0.51 0.50 0.65 0.79 0.92 0.87 1.30 2.40 2.55 1.97 1.74 1.64 1.59 1.65 1.65 1.71 1.77 1.74 1.80 1.88 1.92 2.01 2.12 2.20 2.16 2.16 2.22 2.32 2.45 2.39 2.28 2.18 2.01 2.20 2.24 2.16 2.08 2.06 2.25 2.42 2.33 2.25
0.74 1.04 0.84 0.58 0.49 0.50 0.44 0.43 0.44 0.60 0.79 0.99 1.09 1.27 1.69 1.56 1.62 1.79 1.95 2.12 2.18 2.25 2.32 2.07 1.81 1.75 1.87 1.79 1.87 2.36 2.56 2.46 2.55 2.64 2.62 2.71 2.72 2.51 2.47 2.32 2.47 2.36 2.36 2.39 2.35 2.40 2.57 2.35 2.05
0.68 0.87 0.56 0.32 0.30 0.36 0.35 0.38 0.46 0.70 1.00 1.30 1.36 1.41 1.62 1.61 1.55 1.69 1.88 2.14 2.38 2.71 2.77 2.39 2.05 1.85 1.73 1.50 1.99 2.58 2.49 2.61 2.78 2.85 2.67 2.95 3.16 3.04 2.47 2.77 3.12 3.08 3.16 3.02 2.88 2.83 2.63 2.52 2.29
0.54 0.49 0.31 0.24 0.22 0.26 0.30 0.35 0.45 0.77 1.26 1.72 1.98 2.04 1.91 1.77 1.82 1.90 1.99 2.35 2.78 3.04 2.94 2.52 2.24 2.05 1.78 1.90 1.99 2.33 2.62 2.94 2.89 2.68 2.62 3.03 2.93 2.71 2.70 2.94 3.13 3.30 3.15 3.02 2.98 3.08 2.86 3.12 3.56
0.34 0.25 0.19 0.21 0.19 0.22 0.28 0.36 0.49 0.75 1.21 1.48 1.71 1.98 2.12 2.05 2.28 2.35 2.31 2.75 3.15 3.18 2.91 2.63 2.42 2.21 2.05 1.98 2.03 2.19 2.34 2.65 2.80 2.84 2.71 2.95 3.40 3.36 3.28 3.41 3.38 3.48 3.60 3.97 3.70 3.82 3.60 3.62 3.68
0.29 0.21 0.17 0.20 0.23 0.24 0.25 0.37 0.53 0.82 0.94 1.09 1.24 1.43 1.76 2.20 2.62 2.85 2.95 3.33 3.38 3.31 3.11 2.87 2.54 2.57 2.47 2.59 2.68 2.35 2.45 2.61 2.91 3.17 3.09 3.10 3.53 3.56 3.51 3.54 3.65 3.40 3.44 3.74 4.11 3.90 3.94 4.11 3.99
0.24 0.20 0.18 0.23 0.27 0.28 0.34 0.47 0.55 0.90 0.89 0.95 1.16 1.40 1.98 2.58 2.82 3.20 3.63 3.95 3.90 3.73 3.71 3.45 3.07 3.10 3.11 3.01 3.05 2.98 2.68 2.93 3.06 3.22 3.14 3.24 3.53 3.74 3.70 3.49 3.62 3.45 3.38 3.56 3.89 3.87 4.33 4.34 4.36
0.20 0.27 0.31 0.29 0.31 0.35 0.43 0.75 0.80 0.94 0.95 1.04 1.38 1.58 2.06 2.43 2.75 2.92 3.41 3.78 3.82 3.84 4.00 3.95 3.78 3.87 3.87 3.65 3.41 3.21 3.10 3.09 3.40 3.54 3.40 3.43 3.48 3.75 3.73 3.65 3.52 3.52 3.54 3.77 3.90 3.94 4.32 4.29 4.27
0.28 0.46 0.59 0.43 0.36 0.38 0.59 1.14 0.97 0.91 1.07 1.34 1.58 1.71 1.97 2.18 2.58 2.70 3.06 3.60 3.92 3.96 4.22 4.43 4.31 4.38 4.32 4.29 4.10 3.74 3.62 3.62 3.58 3.49 3.52 3.40 3.51 3.65 3.93 3.74 3.44 3.53 3.51 3.71 4.14 4.27 4.51 4.68 4.65
0.48 0.61 0.66 0.62 0.46 0.41 0.67 1.17 1.12 1.10 1.22 1.35 1.48 1.74 1.90 1.94 2.30 2.75 3.05 3.64 4.11 4.26 4.68 5.11 5.21 5.14 4.89 4.62 4.52 4.40 4.25 4.03 3.73 3.66 3.57 3.40 3.37 3.38 3.75 3.71 3.64 3.63 3.86 3.92 3.70 4.40 4.74 4.87 4.76
0.63 0.57 0.61 0.66 0.54 0.51 0.69 0.90 0.98 1.14 1.32 1.44 1.43 1.55 1.60 1.74 2.21 2.77 3.13 3.50 4.19 4.72 5.38 5.53 5.56 5.85 5.66 5.37 5.26 5.09 4.71 4.31 3.97 3.80 3.66 3.34 3.29 3.25 3.67 3.50 3.52 3.61 4.01 4.20 4.29 4.78 4.81 4.61 4.71
0.44 0.55 0.67 0.66 0.54 0.70 0.90 1.04 1.11 1.20 1.31 1.51 1.54 1.43 1.48 1.76 2.17 2.65 3.08 3.51 3.96 4.58 5.24 5.91 6.15 6.05 5.91 5.69 5.28 4.95 4.59 4.37 4.00 3.58 3.31 3.25 3.24 3.41 3.98 3.60 3.97 3.84 3.92 4.02 4.18 4.50 4.55 4.29 4.51
0.34 0.54 0.69 0.68 0.55 0.67 0.96 1.23 1.34 1.27 1.25 1.31 1.45 1.56 1.57 1.85 2.20 2.63 3.16 3.44 3.63 3.98 4.45 4.96 5.34 5.06 4.75 4.64 4.63 4.54 4.51 4.07 3.90 3.72 3.75 3.42 3.44 3.49 3.59 3.89 3.81 3.86 4.03 3.82 3.88 4.30 4.21 3.76 4.12
0.34 0.49 0.55 0.56 0.58 0.74 1.08 1.60 1.59 1.28 1.14 1.17 1.27 1.55 1.77 1.82 2.09 2.41 2.88 3.12 3.24 3.39 3.54 3.75 4.05 4.15 4.22 4.35 4.52 4.71 4.88 4.53 4.36 4.25 4.10 3.60 3.51 3.50 3.64 3.63 3.61 3.77 3.69 3.72 3.75 3.93 4.09 3.97 3.90
0.37 0.31 0.35 0.41 0.66 1.07 1.17 1.93 1.83 1.45 1.37 1.29 1.29 1.41 1.52 1.66 1.76 1.88 2.20 2.64 2.64 2.74 2.98 3.51 3.78 3.95 4.21 4.55 4.63 4.63 4.59 4.56 4.50 4.53 4.43 4.26 3.97 3.73 3.56 3.42 3.40 3.43 3.28 3.46 3.21 3.53 3.81 4.04 3.72
0.27 0.24 0.29 0.41 0.68 0.97 1.00 1.48 1.65 1.62 1.55 1.33 1.24 1.34 1.37 1.45 1.53 1.64 1.85 2.26 2.33 2.30 2.63 3.25 3.85 4.15 4.39 4.65 4.71 4.97 4.83 4.69 4.51 4.52 4.59 4.39 4.06 3.69 3.31 3.35 3.37 3.36 3.17 3.07 3.03 3.36 3.33 3.46 3.51
0.19 0.29 0.46 0.60 0.90 1.39 1.04 1.18 1.62 1.61 1.39 1.23 1.07 1.07 1.15 1.13 1.17 1.37 1.70 2.16 2.33 2.42 2.74 3.24 3.79 4.25 4.44 4.48 4.48 4.62 4.67 4.68 4.42 4.29 3.97 3.58 3.42 3.29 3.01 3.04 3.12 3.02 3.00 3.03 2.99 3.07 3.09 3.20 3.31
0.23 0.48 1.13 1.55 1.83 1.77 1.00 1.05 1.40 1.23 1.14 1.04 1.05 1.02 0.93 0.95 1.02 1.08 1.25 1.38 1.53 1.73 2.04 2.46 2.99 3.37 3.58 3.67 3.71 3.71 3.95 4.02 3.72 3.39 3.17 2.92 2.71 2.56 2.52 2.64 2.77 2.65 2.71 2.75 2.94 2.87 2.79 2.97 3.19
0.24 0.37 0.84 1.25 1.39 1.31 1.11 1.47 1.43 1.08 0.91 0.88 0.93 0.88 0.73 0.69 0.68 0.72 0.84 0.88 1.14 1.47 1.92 2.26 2.44 2.64 2.86 2.96 3.00 3.03 3.10 3.07 2.90 2.93 2.62 2.44 2.30 2.18 2.27 2.39 2.46 2.42 2.44 2.38 2.79 2.61 2.57 2.73 2.82
0.21 0.25 0.34 0.48 0.62 1.03 1.30 1.64 1.52 1.15 1.02 0.92 0.79 0.70 0.65 0.57 0.54 0.59 0.62 0.70 0.97 1.29 1.66 1.89 2.02 2.34 2.63 2.74 2.66 2.60 2.46 2.50 2.63 2.57 2.33 2.23 2.29 2.17 2.26 2.21 2.32 2.37 2.42 2.48 2.65 2.52 2.50 2.76 2.70
0.19 0.26 0.34 0.43 0.74 1.17 1.34 1.65 1.78 1.48 1.26 0.99 0.90 0.94 0.74 0.64 0.60 0.67 0.69 0.78 0.95 1.08 1.41 1.65 1.85 2.20 2.41 2.45 2.39 2.26 2.32 2.30 2.42 2.33 2.26 2.22 2.24 2.30 2.33 2.30 2.44 2.40 2.36 2.39 2.48 2.26 2.30 2.58 2.65
0.23 0.27 0.30 0.38 0.48 0.87 1.39 1.61 1.39 1.24 1.13 0.93 0.89 0.92 0.88 0.85 0.71 0.70 0.76 0.84 0.94 1.11 1.37 1.69 2.02 2.22 2.30 2.19 2.15 2.21 2.20 2.18 2.23 2.19 2.15 2.20 2.33 2.36 2.30 2.26 2.36 2.38 2.33 2.40 2.48 2.23 2.40 2.54 2.58
0.22 0.24 0.27 0.41 0.44 0.46 0.87 1.27 0.98 0.88 0.94 0.93 0.93 0.99 0.98 0.92 0.83 0.84 0.95 0.96 1.00 1.15 1.34 1.66 2.03 2.25 2.31 2.21 2.31 2.45 2.47 2.48 2.41 2.21 2.10 2.18 2.27 2.31 2.38 2.40 2.39 2.30 2.33 2.55 2.62 2.40 2.50 2.62 2.58